Location: ????????
(60.5616°N, 46.8254°E)
Time: 00:32:15
(UTC+00:00)

Cosmos 1354 Rocket - Pass Details

Date: 18 February 2020
Orbit: 765 x 782 km, 74.0° (Epoch: 09 April)

Event Time Altitude Azimuth Distance (km) Brightness Sun altitude
Rises 14:37:22 0° 326° (NW) 3,282 7.6 -6.6°
Reaches altitude 10° 14:39:46 10° 326° (NW) 2,348 6.8 -6.9°
Maximum altitude 14:45:06 79° 241° (WSW) 800 4.2 -7.5°
Drops below altitude 10° 14:50:23 10° 155° (SSE) 2,323 6.3 -8.2°
Sets 14:52:45 0° 154° (SSE) 3,244 7.1 -8.5°
